This is the latest recevied weather packets stored in our database for station/object N4JTC. If no packets are shown the sender has not sent any weather packets the latest 10 day(s).
| Time | Temp. | Humidity | Pressure | Rain* | Wind** | Luminosity | Snow |
|---|---|---|---|---|---|---|---|
| 1778191503 | 25.56° C | 94% | 1013.2 hPa | 0 mm | - | 191 W/m² | - |
| 1778190903 | 25.56° C | 93% | 1013.5 hPa | 1.27 mm | - | 134 W/m² | - |
| 1778190302 | 25.56° C | 93% | 1013.7 hPa | 0 mm | - | 33 W/m² | - |
| 1778190003 | 25.56° C | 93% | 1013.8 hPa | 0 mm | - | 19 W/m² | - |
| 1778189703 | 25.56° C | 92% | 1013.8 hPa | 0 mm | - | 25 W/m² | - |
| 1778189103 | 26.11° C | 91% | 1014.2 hPa | 1.78 mm | - | 31 W/m² | - |
| 1778188803 | 26.11° C | 90% | 1013.9 hPa | 0 mm | - | 28 W/m² | - |
| 1778188503 | 26.11° C | 90% | 1014.1 hPa | 0 mm | - | 38 W/m² | - |
| 1778188203 | 26.67° C | 89% | 1013.9 hPa | 0 mm | - | 43 W/m² | - |
| 1778187903 | 26.67° C | 88% | 1013.8 hPa | 0 mm | - | 72 W/m² | - |
| 1778187303 | 26.67° C | 89% | 1013.9 hPa | 0 mm | - | 152 W/m² | - |
| 1778187003 | 26.67° C | 89% | 1014.2 hPa | 0 mm | - | 131 W/m² | - |
| 1778186703 | 26.67° C | 89% | 1013.9 hPa | 0 mm | - | 125 W/m² | - |
| 1778186403 | 26.67° C | 89% | 1013.9 hPa | 0 mm | - | 216 W/m² | - |
| 1778186103 | 26.67° C | 89% | 1014.1 hPa | 0 mm | - | 127 W/m² | - |
| 1778185803 | 26.67° C | 89% | 1013.9 hPa | 0 mm | - | 288 W/m² | - |
| 1778185503 | 26.11° C | 90% | 1014.1 hPa | 0 mm | - | 160 W/m² | - |
| 1778185204 | 26.11° C | 90% | 1014.1 hPa | 0 mm | - | 135 W/m² | - |
| 1778184903 | 26.11° C | 91% | 1014.1 hPa | 0 mm | - | 162 W/m² | - |
| 1778184303 | 26.11° C | 91% | 1013.9 hPa | 0 mm | - | 106 W/m² | - |
| 1778184003 | 26.11° C | 91% | 1014.1 hPa | 0 mm | - | 67 W/m² | - |
| 1778183702 | 26.11° C | 90% | 1014.1 hPa | 0 mm | - | 225 W/m² | - |
| 1778183403 | 26.11° C | 90% | 1014.3 hPa | 0 mm | - | 226 W/m² | - |
| 1778183103 | 26.11° C | 90% | 1014.2 hPa | 0 mm | - | 113 W/m² | - |
| 1778182503 | 26.11° C | 90% | 1014.2 hPa | 0 mm | - | 257 W/m² | - |
* Rain latest hour (hover to see other rain measurements)
** Current wind speed in m/s (hover to see current wind gust speed)